SCP
0 0 0 0 0 0 0 0 0 0 0 0 0 0 0 0 0 0 0 0 0 0 0 0 0 0 0 0 0 0 0 0 0 0 0 0 0 0 0 0 0 0 0
0 0 0 0 0 0 0 0 0 0 0 0 0 0 0 0 0 0 0 0 0 0 0 0 0 0 0 0 0 0 0 0 0 0 0 0 0 0 0 0 0 0 0
0 0 0 0 0 0 0 0 0 0 0 0 0 0 0 0 0 0 0 0 0 0 0 0 0 0 0 0 0 0 0 0 0 0 0 0 0 0 0 0 0 0 0
0 0 0 0 0 0 0 0 0 0 0 0 0 0 0 0 0 0 0 0 0 0 0 0 0 0 0 0 0 0 0 0 0 0 0 0 0 0 0 0 0 0 0
0 0 0 0 0 0 0 0 0 0 0 0 0 0 0 0 0 0 0 0 0 0 0 0 0 0 0 0 0 0 0 0 0 0 0 0 0 0 0 0 0 0 0
0 0 0 0 0 0 0 0 0 0 0 0 0 0 0 0 0 0 0 0 0 0 0 0 0 0 0 0 0 0 0 0 0 0 0 0 0 0 0 0 0 0 0
0 0 0 0 0 0 0 0 0 0 0 0 0 0 0 0 0 0 0 0 0 0 0 0 0 0 0 0 0 0 0 0 0 0 0 0 0 0 0 0 0 0 0
0 0 0 0 0 0 0 0 0 0 0 0 0 0 0 0 0 0 0 0 0 0 0 0 0 0 0 0 0 0 0 0 0 0 0 0 0 0 0 0 0 0 0
0 0 0 0 0 0 0 0 0 0 0 0 0 0 0 0 0 0 0 0 0 0 0 0 0 0 0 0 0 0 0 0 0 0 0 0 0 0 0 0 0 0 0
0 0 0 0 0 0 0 0 0 0 0 0 0 0 0 0 0 0 0 0 0 0 0 0 0 0 0 0 0 0 0 0 0 0 0 0 0 0 0 0 0 0 0
0 0 0 0 0 0 0 0 0 0 0 0 0 0 0 0 0 0 0 0 0 0 0 0 0 0 0 0 0 0 0 0 0 0 0 0 0 0 0 0 0 0 0
0 0 0 0 0 0 0 0 0 0 0 0 0 0 0 0 0 0 0 0 0 0 0 0 0 0 0 0 0 0 0 0 0 0 0 0 0 0 0 0 0 0 0
0 0 0 0 0 0 0 0 0 0 0 0 0 0 0 0 0 0 0 0 0 0 0 0 0 0 0 0 0 0 0 0 0 0 0 0 0 0 0 0 0 0 0
0 0 0 0 0 0 0 0 0 0 0 0 0 0 0 0 0 0 0 0 0 0 0 0 0 0 0 0 0 0 0 0 0 0 0 0 0 0 0 0 0 0 0
0 0 0 0 0 0 0 0 0 0 0 0 0 0 0 0 0 0 0 0 0 0 0 0 0 0 0 0 0 0 0 0 0 0 0 0 0 0 0 0 0 0 0
0 0 0 0 0 0 0 0 0 0 0 0 0 0 0 0 0 0 0 0 0 0 0 0 0 0 0 0 0 0 0 0 0 0 0 0 0 0 0 0 0 0 0
0 0 0 0 0 0 0 0 0 0 0 0 0 0 0 0 0 0 0 0 0 0 0 0 0 0 0 0 0 0 0 0 0 0 0 0 0 0 0 0 0 0 0
0 0 0 0 0 0 0 0 0 0 0 0 0 0 0 0 0 0 0 0 0 0 0 0 0 0 0 0 0 0 0 0 0 0 0 0 0 0 0 0 0 0 0
0 0 0 0 0 0 0 0 0 0 0 0 0 0 0 0 0 0 0 0 0 0 0 0 0 0 0 0 0 0 0 0 0 0 0 0 0 0 0 0 0 0 0
0 0 0 0 0 0 0 0 0 0 0 0 0 0 0 0 0 0 0 0 0 0 0 0 0 0 0 0 0 0 0 0 0 0 0 0 0 0 0 0 0 0 0
0 0 0 0 0 0 0 0 0 0 0 0 0 0 0 0 0 0 0 0 0 0 0 0 0 0 0 0 0 0 0 0 0 0 0 0 0 0 0 0 0 0 0
0 0 0 0 0 0 0 0 0 0 0 0 0 0 0 0 0 0 0 0 0 0 0 0 0 0 0 0 0 0 0 0 0 0 0 0 0 0 0 0 0 0 0
0 0 0 0 0 0 0 0 0 0 0 0 0 0 0 0 0 0 0 0 0 0 0 0 0 0 0 0 0 0 0 0 0 0 0 0 0 0 0 0 0 0 0
0 0 0 0 0 0 0 0 0 0 0 0 0 0 0 0 0 0 0 0 0 0 0 0 0 0 0 0 0 0 0 0 0 0 0 0 0 0 0 0 0 0 0
0 0 0 0 0 0 0 0 0 0 0 0 0 0 0 0 0 0 0 0 0 0 0 0 0 0 0 0 0 0 0 0 0 0 0 0 0 0 0 0 0 0 0
0 0 0 0 0 0 0 0 0 0 0 0 0 0 0 0 0 0 0 0 0 0 0 0 0 0 0 0 0 0 0 0 0 0 0 0 0 0 0 0 0 0 0
Wind_Speed_500mb
21 25 25 25 30 30 35 29 29 40 38 32 37 30 25 21 20 20 27 27 26 26 26 26 24 28 32 31 33 32 29 29 30 39 41 43 45 47 45 45 46 46 45
19 21 23 25 30 28 22 20 22 24 24 21 19 16 18 19 19 17 15 15 15 15 16 19 19 20 22 22 23 24 23 24 24 27 34 39 39 41 42 41 39 40 37
14 14 18 23 24 22 19 16 14 11 9 12 10 8 7 7 7 9 9 9 10 12 13 14 15 17 19 21 23 25 26 27 28 29 33 37 38 37 34 30 29 29 29
17 20 21 21 20 19 19 17 16 14 12 11 9 8 8 7 6 5 5 5 7 8 10 12 15 19 20 22 25 27 28 28 28 27 28 30 30 30 31 32 27 26 29
20 22 23 23 23 22 22 21 20 18 15 13 10 8 6 5 4 3 3 5 8 12 14 17 19 21 24 24 24 24 24 23 22 22 22 23 26 29 33 37 39 37 35
19 21 23 23 23 22 21 20 18 17 14 11 8 5 2 3 5 7 8 10 13 14 15 17 18 20 22 22 23 22 21 20 19 19 21 23 28 31 34 39 44 51 49
19 20 21 20 19 18 17 15 12 10 9 6 4 4 4 5 6 6 7 9 11 12 12 13 14 16 17 17 16 16 15 14 14 15 19 24 27 32 37 40 43 46 49
17 16 16 15 14 13 12 11 9 8 6 4 3 3 5 5 4 4 6 9 10 10 10 11 12 12 12 11 12 13 14 16 18 21 24 27 30 34 38 42 48 51 47
14 14 14 12 11 10 9 8 7 7 6 6 5 5 5 5 4 4 5 6 8 9 9 9 11 13 15 13 14 17 17 18 20 24 27 29 30 34 39 43 45 52 57
15 16 17 16 14 12 11 9 6 4 4 4 5 7 8 10 9 8 7 7 8 8 9 11 12 14 19 21 19 20 22 23 24 25 27 28 30 32 37 41 46 46 50
20 17 14 12 10 8 6 6 6 7 8 9 9 10 11 11 11 9 8 8 9 10 12 13 15 19 23 25 27 23 24 29 27 29 30 31 33 35 37 39 43 43 45
21 19 18 14 13 11 11 12 12 11 11 11 11 11 12 12 11 10 10 10 10 11 14 17 19 23 25 27 27 26 30 31 33 34 34 35 36 37 38 38 41 39 41
24 20 19 16 16 15 13 12 12 13 13 14 14 14 13 12 10 11 11 10 11 12 15 18 22 25 27 27 27 30 32 33 35 36 38 38 39 41 41 42 40 43 39
23 21 19 18 18 17 17 18 18 19 19 17 16 15 13 13 12 11 11 11 14 17 21 22 23 26 26 27 28 30 33 36 39 40 40 41 42 42 42 47 46 47 51
24 23 22 23 24 24 25 25 26 26 24 20 18 17 16 14 12 12 14 17 19 23 25 25 22 22 22 23 25 29 32 35 38 39 41 43 43 45 43 45 47 48 50
29 29 29 30 31 31 33 34 33 30 27 22 21 19 17 15 14 15 17 18 21 24 21 18 18 19 20 22 24 27 30 34 37 40 43 47 49 50 51 47 47 48 52
33 32 33 35 37 37 38 37 34 32 28 25 24 21 19 17 17 17 18 17 17 18 15 16 18 21 23 25 28 32 34 37 40 42 44 47 50 51 55 53 51 51 52
37 38 39 40 41 39 39 36 36 32 28 27 27 25 22 19 18 17 16 15 13 15 15 16 19 23 26 29 31 34 36 38 40 43 45 48 50 54 55 55 54 54 54
41 40 38 40 40 40 39 39 37 34 33 32 28 25 24 22 20 18 17 16 14 16 19 20 23 24 26 30 34 37 41 42 44 45 46 49 51 56 55 55 54 52 54
40 39 40 40 38 39 39 38 37 36 34 32 29 28 28 25 23 23 22 21 21 20 23 26 26 30 32 35 37 40 43 45 46 47 49 50 51 54 56 58 56 56 53
38 39 39 38 39 39 39 38 37 37 37 37 33 35 33 32 29 30 30 30 29 30 31 34 35 36 38 41 44 46 49 50 51 51 53 53 54 55 54 56 56 53 53
39 40 39 38 38 39 36 37 39 41 40 39 36 38 41 41 36 36 37 36 36 39 42 44 45 45 46 48 51 55 56 56 54 55 58 56 56 56 55 56 55 52 51
40 39 39 38 37 38 40 42 43 43 42 43 42 43 46 48 46 46 46 45 44 46 47 52 55 55 55 56 58 61 64 62 60 61 61 59 58 57 55 56 55 51 49
36 36 36 37 40 41 43 44 45 46 47 48 49 50 50 50 52 54 54 54 55 56 57 59 61 63 64 66 67 69 70 67 66 66 64 63 61 58 56 56 53 48 47
33 35 38 39 41 43 45 47 49 50 51 53 54 54 54 55 58 59 60 61 63 65 65 66 68 70 72 72 75 76 74 70 69 68 68 65 63 60 57 55 52 47 44
36 37 39 41 45 47 49 51 52 54 55 56 58 59 60 62 63 65 66 68 71 73 74 75 75 74 75 75 75 74 75 74 70 68 68 66 64 61 57 54 51 48 44
Wind_Direction_500mb
215 209 207 204 214 208 220 218 225 226 208 217 228 209 234 254 238 248 235 244 236 242 251 253 254 257 261 265 268 269 270 266 259 258 267 275 283 287 292 299 303 307 312
199 203 197 213 223 223 226 214 208 222 220 203 219 216 232 239 225 216 225 231 240 252 257 256 257 259 265 272 278 282 283 283 278 271 271 276 283 291 299 304 306 310 314
173 183 191 201 211 206 194 200 207 208 224 251 225 224 210 198 218 231 236 242 247 253 257 264 273 277 281 286 288 290 292 291 288 285 284 288 294 297 300 306 309 313 318
158 171 176 178 180 182 184 186 185 179 181 175 182 187 192 195 197 210 227 243 258 267 277 282 288 290 292 293 294 294 294 293 292 292 292 296 302 310 315 315 312 327 330
138 140 141 141 141 142 142 144 145 145 151 155 161 173 178 185 193 205 255 280 281 286 287 288 290 290 293 297 298 299 299 298 300 300 302 307 311 319 327 333 334 336 339
137 140 136 136 137 137 137 137 137 140 145 144 152 167 204 255 270 274 273 279 284 284 289 294 298 306 311 314 312 310 309 314 313 318 320 323 328 332 333 336 338 341 347
144 141 137 136 138 137 137 138 140 148 151 162 181 213 246 255 252 266 279 293 296 298 302 306 308 312 314 314 313 313 315 312 312 322 326 328 329 333 333 333 334 336 338
153 152 151 152 156 155 153 152 157 163 167 186 208 253 276 283 286 286 282 299 305 307 306 307 311 313 317 319 314 312 316 318 325 327 329 326 327 328 327 329 330 328 328
183 178 174 168 166 169 171 174 180 188 194 204 219 238 264 287 283 290 297 307 307 312 316 318 317 318 322 323 322 320 315 313 313 314 316 320 321 320 317 318 317 323 328
192 190 187 184 182 183 186 189 195 207 239 257 271 278 291 307 314 327 323 319 316 316 313 313 311 309 314 316 311 310 303 303 304 303 304 304 306 307 309 314 319 327 332
215 206 204 201 201 211 227 244 255 265 269 274 276 279 283 290 298 304 302 304 304 304 301 300 299 300 304 309 309 308 300 299 301 300 300 301 303 303 305 308 313 322 327
206 208 210 210 219 229 238 248 254 260 269 275 278 278 277 273 275 275 274 276 283 284 285 289 293 301 304 306 311 304 300 305 302 303 301 301 301 301 301 303 307 315 321
209 216 220 227 238 244 253 266 277 281 281 282 277 268 261 258 259 262 268 276 289 300 294 298 303 304 308 309 309 307 308 306 306 306 306 306 305 304 304 302 302 305 309
222 228 240 250 254 265 274 276 278 277 273 260 249 248 249 248 248 254 270 288 300 303 302 304 300 301 305 309 310 308 308 308 308 309 311 309 307 305 304 303 306 308 310
235 243 252 258 265 272 273 271 268 260 251 242 239 240 242 242 247 269 285 294 299 295 296 293 289 291 296 298 301 303 304 305 306 309 309 309 309 307 307 306 308 309 312
246 254 260 265 268 269 268 264 257 251 246 245 243 239 241 252 266 275 284 293 293 290 295 285 288 294 300 305 306 307 309 311 312 314 315 315 315 313 311 310 309 309 313
252 257 262 263 262 259 257 253 249 244 244 240 235 235 237 246 255 267 279 286 290 297 298 300 308 312 313 315 317 319 320 318 318 318 317 316 314 314 312 313 312 312 314
249 252 253 252 252 253 251 245 241 240 236 230 230 232 236 244 251 260 276 289 293 296 302 306 309 314 318 319 317 316 315 315 316 316 316 315 314 313 313 314 314 313 314
249 252 253 253 252 248 243 238 236 230 227 229 230 234 238 242 249 259 270 280 289 298 308 315 315 314 313 313 315 316 317 318 317 316 315 314 313 312 314 314 312 312 313
252 253 252 251 246 239 237 236 231 230 232 233 235 240 244 247 253 261 270 277 286 292 295 298 300 305 309 310 312 313 314 315 314 313 312 312 312 313 315 315 314 312 313
251 250 247 243 239 237 235 233 231 234 234 235 237 246 252 255 255 259 263 272 279 284 288 292 296 299 302 304 306 308 309 311 312 311 309 312 311 311 312 311 310 309 309
239 239 238 236 234 235 238 235 236 238 239 242 242 247 256 260 260 260 263 269 275 282 288 291 293 297 300 302 304 304 304 305 306 305 305 307 307 309 310 309 309 307 307
235 235 235 234 234 235 234 235 240 244 244 247 248 249 253 263 267 270 272 275 278 281 284 287 291 294 296 297 298 298 298 300 301 299 300 302 303 305 306 306 306 304 303
231 230 232 233 235 237 239 241 247 249 251 252 254 257 260 262 267 271 275 278 281 283 284 286 288 290 293 293 294 294 294 296 294 294 295 297 299 301 301 303 303 300 299
232 236 239 241 243 245 245 247 250 253 256 259 262 264 267 269 271 273 276 279 281 283 284 286 287 288 289 289 289 290 289 289 289 288 289 291 293 295 298 300 301 296 296
241 244 245 245 245 246 249 253 257 260 262 264 267 270 272 275 277 279 281 283 285 287 288 287 288 288 288 287 287 287 286 287 286 284 284 285 288 291 294 296 295 292 292
Wind_Speed_850mb
21 25 25 25 30 30 35 29 29 40 38 32 37 30 25 21 20 20 27 27 26 26 26 26 24 28 32 31 33 32 29 29 30 39 41 43 45 47 45 45 46 46 45
19 21 23 25 30 28 22 20 22 24 24 21 19 16 18 19 19 17 15 15 15 15 16 19 19 20 22 22 23 24 23 24 24 27 34 39 39 41 42 41 39 40 37
14 14 18 23 24 22 19 16 14 11 9 12 10 8 7 7 7 9 9 9 10 12 13 14 15 17 19 21 23 25 26 27 28 29 33 37 38 37 34 30 29 29 29
17 20 21 21 20 19 19 17 16 14 12 11 9 8 8 7 6 5 5 5 7 8 10 12 15 19 20 22 25 27 28 28 28 27 28 30 30 30 31 32 27 26 29
20 22 23 23 23 22 22 21 20 18 15 13 10 8 6 5 4 3 3 5 8 12 14 17 19 21 24 24 24 24 24 23 22 22 22 23 26 29 33 37 39 37 35
19 21 23 23 23 22 21 20 18 17 14 11 8 5 2 3 5 7 8 10 13 14 15 17 18 20 22 22 23 22 21 20 19 19 21 23 28 31 34 39 44 51 49
19 20 21 20 19 18 17 15 12 10 9 6 4 4 4 5 6 6 7 9 11 12 12 13 14 16 17 17 16 16 15 14 14 15 19 24 27 32 37 40 43 46 49
17 16 16 15 14 13 12 11 9 8 6 4 3 3 5 5 4 4 6 9 10 10 10 11 12 12 12 11 12 13 14 16 18 21 24 27 30 34 38 42 48 51 47
14 14 14 12 11 10 9 8 7 7 6 6 5 5 5 5 4 4 5 6 8 9 9 9 11 13 15 13 14 17 17 18 20 24 27 29 30 34 39 43 45 52 57
15 16 17 16 14 12 11 9 6 4 4 4 5 7 8 10 9 8 7 7 8 8 9 11 12 14 19 21 19 20 22 23 24 25 27 28 30 32 37 41 46 46 50
20 17 14 12 10 8 6 6 6 7 8 9 9 10 11 11 11 9 8 8 9 10 12 13 15 19 23 25 27 23 24 29 27 29 30 31 33 35 37 39 43 43 45
21 19 18 14 13 11 11 12 12 11 11 11 11 11 12 12 11 10 10 10 10 11 14 17 19 23 25 27 27 26 30 31 33 34 34 35 36 37 38 38 41 39 41
24 20 19 16 16 15 13 12 12 13 13 14 14 14 13 12 10 11 11 10 11 12 15 18 22 25 27 27 27 30 32 33 35 36 38 38 39 41 41 42 40 43 39
23 21 19 18 18 17 17 18 18 19 19 17 16 15 13 13 12 11 11 11 14 17 21 22 23 26 26 27 28 30 33 36 39 40 40 41 42 42 42 47 46 47 51
24 23 22 23 24 24 25 25 26 26 24 20 18 17 16 14 12 12 14 17 19 23 25 25 22 22 22 23 25 29 32 35 38 39 41 43 43 45 43 45 47 48 50
29 29 29 30 31 31 33 34 33 30 27 22 21 19 17 15 14 15 17 18 21 24 21 18 18 19 20 22 24 27 30 34 37 40 43 47 49 50 51 47 47 48 52
33 32 33 35 37 37 38 37 34 32 28 25 24 21 19 17 17 17 18 17 17 18 15 16 18 21 23 25 28 32 34 37 40 42 44 47 50 51 55 53 51 51 52
37 38 39 40 41 39 39 36 36 32 28 27 27 25 22 19 18 17 16 15 13 15 15 16 19 23 26 29 31 34 36 38 40 43 45 48 50 54 55 55 54 54 54
41 40 38 40 40 40 39 39 37 34 33 32 28 25 24 22 20 18 17 16 14 16 19 20 23 24 26 30 34 37 41 42 44 45 46 49 51 56 55 55 54 52 54
40 39 40 40 38 39 39 38 37 36 34 32 29 28 28 25 23 23 22 21 21 20 23 26 26 30 32 35 37 40 43 45 46 47 49 50 51 54 56 58 56 56 53
38 39 39 38 39 39 39 38 37 37 37 37 33 35 33 32 29 30 30 30 29 30 31 34 35 36 38 41 44 46 49 50 51 51 53 53 54 55 54 56 56 53 53
39 40 39 38 38 39 36 37 39 41 40 39 36 38 41 41 36 36 37 36 36 39 42 44 45 45 46 48 51 55 56 56 54 55 58 56 56 56 55 56 55 52 51
40 39 39 38 37 38 40 42 43 43 42 43 42 43 46 48 46 46 46 45 44 46 47 52 55 55 55 56 58 61 64 62 60 61 61 59 58 57 55 56 55 51 49
36 36 36 37 40 41 43 44 45 46 47 48 49 50 50 50 52 54 54 54 55 56 57 59 61 63 64 66 67 69 70 67 66 66 64 63 61 58 56 56 53 48 47
33 35 38 39 41 43 45 47 49 50 51 53 54 54 54 55 58 59 60 61 63 65 65 66 68 70 72 72 75 76 74 70 69 68 68 65 63 60 57 55 52 47 44
36 37 39 41 45 47 49 51 52 54 55 56 58 59 60 62 63 65 66 68 71 73 74 75 75 74 75 75 75 74 75 74 70 68 68 66 64 61 57 54 51 48 44
Wind_Direction_850mb
215 209 207 204 214 208 220 218 225 226 208 217 228 209 234 254 238 248 235 244 236 242 251 253 254 257 261 265 268 269 270 266 259 258 267 275 283 287 292 299 303 307 312
199 203 197 213 223 223 226 214 208 222 220 203 219 216 232 239 225 216 225 231 240 252 257 256 257 259 265 272 278 282 283 283 278 271 271 276 283 291 299 304 306 310 314
173 183 191 201 211 206 194 200 207 208 224 251 225 224 210 198 218 231 236 242 247 253 257 264 273 277 281 286 288 290 292 291 288 285 284 288 294 297 300 306 309 313 318
158 171 176 178 180 182 184 186 185 179 181 175 182 187 192 195 197 210 227 243 258 267 277 282 288 290 292 293 294 294 294 293 292 292 292 296 302 310 315 315 312 327 330
138 140 141 141 141 142 142 144 145 145 151 155 161 173 178 185 193 205 255 280 281 286 287 288 290 290 293 297 298 299 299 298 300 300 302 307 311 319 327 333 334 336 339
137 140 136 136 137 137 137 137 137 140 145 144 152 167 204 255 270 274 273 279 284 284 289 294 298 306 311 314 312 310 309 314 313 318 320 323 328 332 333 336 338 341 347
144 141 137 136 138 137 137 138 140 148 151 162 181 213 246 255 252 266 279 293 296 298 302 306 308 312 314 314 313 313 315 312 312 322 326 328 329 333 333 333 334 336 338
153 152 151 152 156 155 153 152 157 163 167 186 208 253 276 283 286 286 282 299 305 307 306 307 311 313 317 319 314 312 316 318 325 327 329 326 327 328 327 329 330 328 328
183 178 174 168 166 169 171 174 180 188 194 204 219 238 264 287 283 290 297 307 307 312 316 318 317 318 322 323 322 320 315 313 313 314 316 320 321 320 317 318 317 323 328
192 190 187 184 182 183 186 189 195 207 239 257 271 278 291 307 314 327 323 319 316 316 313 313 311 309 314 316 311 310 303 303 304 303 304 304 306 307 309 314 319 327 332
215 206 204 201 201 211 227 244 255 265 269 274 276 279 283 290 298 304 302 304 304 304 301 300 299 300 304 309 309 308 300 299 301 300 300 301 303 303 305 308 313 322 327
206 208 210 210 219 229 238 248 254 260 269 275 278 278 277 273 275 275 274 276 283 284 285 289 293 301 304 306 311 304 300 305 302 303 301 301 301 301 301 303 307 315 321
209 216 220 227 238 244 253 266 277 281 281 282 277 268 261 258 259 262 268 276 289 300 294 298 303 304 308 309 309 307 308 306 306 306 306 306 305 304 304 302 302 305 309
222 228 240 250 254 265 274 276 278 277 273 260 249 248 249 248 248 254 270 288 300 303 302 304 300 301 305 309 310 308 308 308 308 309 311 309 307 305 304 303 306 308 310
235 243 252 258 265 272 273 271 268 260 251 242 239 240 242 242 247 269 285 294 299 295 296 293 289 291 296 298 301 303 304 305 306 309 309 309 309 307 307 306 308 309 312
246 254 260 265 268 269 268 264 257 251 246 245 243 239 241 252 266 275 284 293 293 290 295 285 288 294 300 305 306 307 309 311 312 314 315 315 315 313 311 310 309 309 313
252 257 262 263 262 259 257 253 249 244 244 240 235 235 237 246 255 267 279 286 290 297 298 300 308 312 313 315 317 319 320 318 318 318 317 316 314 314 312 313 312 312 314
249 252 253 252 252 253 251 245 241 240 236 230 230 232 236 244 251 260 276 289 293 296 302 306 309 314 318 319 317 316 315 315 316 316 316 315 314 313 313 314 314 313 314
249 252 253 253 252 248 243 238 236 230 227 229 230 234 238 242 249 259 270 280 289 298 308 315 315 314 313 313 315 316 317 318 317 316 315 314 313 312 314 314 312 312 313
252 253 252 251 246 239 237 236 231 230 232 233 235 240 244 247 253 261 270 277 286 292 295 298 300 305 309 310 312 313 314 315 314 313 312 312 312 313 315 315 314 312 313
251 250 247 243 239 237 235 233 231 234 234 235 237 246 252 255 255 259 263 272 279 284 288 292 296 299 302 304 306 308 309 311 312 311 309 312 311 311 312 311 310 309 309
239 239 238 236 234 235 238 235 236 238 239 242 242 247 256 260 260 260 263 269 275 282 288 291 293 297 300 302 304 304 304 305 306 305 305 307 307 309 310 309 309 307 307
235 235 235 234 234 235 234 235 240 244 244 247 248 249 253 263 267 270 272 275 278 281 284 287 291 294 296 297 298 298 298 300 301 299 300 302 303 305 306 306 306 304 303
231 230 232 233 235 237 239 241 247 249 251 252 254 257 260 262 267 271 275 278 281 283 284 286 288 290 293 293 294 294 294 296 294 294 295 297 299 301 301 303 303 300 299
232 236 239 241 243 245 245 247 250 253 256 259 262 264 267 269 271 273 276 279 281 283 284 286 287 288 289 289 289 290 289 289 289 288 289 291 293 295 298 300 301 296 296
241 244 245 245 245 246 249 253 257 260 262 264 267 270 272 275 277 279 281 283 285 287 288 287 288 288 288 287 287 287 286 287 286 284 284 285 288 291 294 296 295 292 292